| time (UTC) | temp F | wind direction | speed MPH | gust MPH | rain 1hr in | rain 24hr in | rain mn in | humidity % | barometer mb |
| 20260505001527 | 48 | 45 | 4.0 | 6.0 | 0.00 | 0.00 | 0.00 | 78 | 1019.2 |
| 20260505001026 | 48 | 53 | 3.0 | 6.0 | 0.00 | 0.00 | 0.00 | 79 | 1019.3 |
| 20260505000526 | 47 | 43 | 4.0 | 6.0 | 0.00 | 0.00 | 0.00 | 79 | 1019.3 |
| 20260505000040 | 47 | 30 | 4.0 | 5.0 | 0.00 | 0.00 | 0.00 | 79 | 1019.3 |
| 20260504235525 | 47 | 26 | 3.0 | 6.0 | 0.00 | 0.00 | 0.00 | 79 | 1019.4 |
| 20260504235024 | 47 | 32 | 4.0 | 6.0 | 0.00 | 0.00 | 0.00 | 78 | 1019.4 |
| 20260504234525 | 47 | 36 | 3.0 | 4.0 | 0.00 | 0.00 | 0.00 | 78 | 1019.5 |
| 20260504234022 | 47 | 32 | 3.0 | 5.0 | 0.00 | 0.00 | 0.00 | 77 | 1019.5 |
| 20260504233521 | 48 | 28 | 3.0 | 5.0 | 0.00 | 0.00 | 0.00 | 76 | 1019.5 |
| 20260504233020 | 48 | 37 | 3.0 | 5.0 | 0.00 | 0.00 | 0.00 | 76 | 1019.6 |
| 20260504232521 | 48 | 46 | 2.0 | 5.0 | 0.00 | 0.00 | 0.00 | 76 | 1019.6 |
| 20260504232022 | 48 | 44 | 3.0 | 6.0 | 0.00 | 0.00 | 0.00 | 76 | 1019.6 |
| 20260504231518 | 48 | 37 | 4.0 | 6.0 | 0.00 | 0.00 | 0.00 | 75 | 1019.6 |
| 20260504231019 | 49 | 13 | 4.0 | 5.0 | 0.00 | 0.00 | 0.00 | 74 | 1019.7 |
| 20260504230516 | 49 | 67 | 2.0 | 5.0 | 0.00 | 0.00 | 0.00 | 75 | 1019.7 |
| 20260504230016 | 49 | 51 | 3.0 | 6.0 | 0.00 | 0.00 | 0.00 | 75 | 1019.8 |
| 20260504225517 | 49 | 42 | 4.0 | 6.0 | 0.00 | 0.00 | 0.00 | 75 | 1019.9 |
| 20260504225014 | 49 | 51 | 4.0 | 6.0 | 0.00 | 0.00 | 0.00 | 75 | 1020.0 |
| 20260504224517 | 48 | 34 | 4.0 | 6.0 | 0.00 | 0.00 | 0.00 | 74 | 1020.0 |
| 20260504224018 | 49 | 20 | 4.0 | 5.0 | 0.00 | 0.00 | 0.00 | 74 | 1020.0 |
| 20260504223512 | 49 | 48 | 3.0 | 4.0 | 0.00 | 0.00 | 0.00 | 73 | 1020.1 |
| 20260504223011 | 49 | 52 | 2.0 | 5.0 | 0.00 | 0.00 | 0.00 | 73 | 1020.1 |
| 20260504222510 | 49 | 54 | 2.0 | 5.0 | 0.00 | 0.00 | 0.00 | 73 | 1020.2 |
| 20260504222010 | 49 | 20 | 4.0 | 5.0 | 0.00 | 0.00 | 0.00 | 72 | 1020.1 |
| 20260504221509 | 50 | 66 | 2.0 | 5.0 | 0.00 | 0.00 | 0.00 | 72 | 1020.1 |
| 20260504221008 | 50 | 38 | 2.0 | 5.0 | 0.00 | 0.00 | 0.00 | 71 | 1020.1 |
| 20260504220508 | 50 | 36 | 3.0 | 9.0 | 0.00 | 0.00 | 0.00 | 71 | 1020.1 |
| 20260504220023 | 50 | 67 | 4.0 | 9.0 | 0.00 | 0.00 | 0.00 | 71 | 1020.3 |
| 20260504215510 | 50 | 29 | 4.0 | 7.0 | 0.00 | 0.00 | 0.00 | 71 | 1020.2 |
| 20260504215010 | 49 | 44 | 5.0 | 7.0 | 0.00 | 0.00 | 0.00 | 70 | 1020.3 |
| 20260504214506 | 50 | 15 | 3.0 | 5.0 | 0.00 | 0.00 | 0.00 | 69 | 1020.4 |
| 20260504214005 | 50 | 30 | 2.0 | 5.0 | 0.00 | 0.00 | 0.00 | 68 | 1020.1 |
| 20260504213505 | 50 | 74 | 2.0 | 6.0 | 0.00 | 0.00 | 0.00 | 69 | 1020.2 |
| 20260504213008 | 50 | 37 | 3.0 | 6.0 | 0.00 | 0.00 | 0.00 | 69 | 1020.2 |
| 20260504212503 | 50 | 39 | 4.0 | 6.0 | 0.00 | 0.00 | 0.00 | 67 | 1020.1 |
| 20260504212001 | 50 | 28 | 3.0 | 5.0 | 0.00 | 0.00 | 0.00 | 66 | 1020.1 |
| 20260504211501 | 51 | 38 | 3.0 | 5.0 | 0.00 | 0.00 | 0.00 | 65 | 1020.0 |
| 20260504211059 | 51 | 43 | 3.0 | 5.0 | 0.00 | 0.00 | 0.00 | 64 | 1020.0 |
| 20260504210600 | 51 | 35 | 3.0 | 6.0 | 0.00 | 0.00 | 0.00 | 64 | 1020.1 |
| 20260504210104 | 51 | 43 | 3.0 | 8.0 | 0.00 | 0.00 | 0.00 | 64 | 1020.1 |
| 20260504205559 | 51 | 55 | 5.0 | 8.0 | 0.00 | 0.00 | 0.00 | 64 | 1020.2 |
| 20260504205059 | 51 | 36 | 4.0 | 7.0 | 0.00 | 0.00 | 0.00 | 64 | 1020.1 |
| 20260504204604 | 51 | 42 | 4.0 | 8.0 | 0.00 | 0.00 | 0.00 | 64 | 1020.1 |
| 20260504204059 | 52 | 35 | 3.0 | 6.0 | 0.00 | 0.00 | 0.00 | 65 | 1020.1 |
| 20260504203557 | 52 | 27 | 3.0 | 5.0 | 0.00 | 0.00 | 0.00 | 64 | 1020.2 |
| 20260504203058 | 52 | 59 | 2.0 | 5.0 | 0.00 | 0.00 | 0.00 | 66 | 1020.3 |
| 20260504202557 | 53 | 39 | 2.0 | 4.0 | 0.00 | 0.00 | 0.00 | 67 | 1020.2 |
| 20260504202057 | 54 | 24 | 3.0 | 5.0 | 0.00 | 0.00 | 0.00 | 65 | 1020.3 |
| 20260504201557 | 54 | 20 | 2.0 | 5.0 | 0.00 | 0.00 | 0.00 | 65 | 1020.4 |
| 20260504201056 | 56 | 355 | 0.0 | 2.0 | 0.00 | 0.00 | 0.00 | 67 | 1020.4 |
| 20260504200556 | 56 | 351 | 1.0 | 4.0 | 0.00 | 0.00 | 0.00 | 65 | 1020.4 |
| 20260504200056 | 56 | 355 | 2.0 | 4.0 | 0.00 | 0.00 | 0.00 | 64 | 1020.5 |
| 20260504195555 | 57 | 285 | 0.0 | 3.0 | 0.00 | 0.00 | 0.00 | 65 | 1020.5 |
| 20260504195055 | 58 | 267 | 0.0 | 3.0 | 0.00 | 0.00 | 0.00 | 64 | 1020.4 |
| 20260504194559 | 58 | 268 | 1.0 | 3.0 | 0.00 | 0.00 | 0.00 | 64 | 1020.4 |
| 20260504194055 | 58 | 267 | 0.0 | 3.0 | 0.00 | 0.00 | 0.00 | 64 | 1020.4 |
| 20260504193555 | 58 | 267 | 1.0 | 3.0 | 0.00 | 0.00 | 0.00 | 64 | 1020.4 |
| 20260504193111 | 58 | 266 | 0.0 | 4.0 | 0.00 | 0.00 | 0.00 | 64 | 1020.4 |
| 20260504192556 | 58 | 262 | 1.0 | 5.0 | 0.00 | 0.00 | 0.00 | 63 | 1020.3 |
| 20260504192059 | 58 | 255 | 3.0 | 5.0 | 0.00 | 0.00 | 0.00 | 63 | 1020.2 |
| 20260504191555 | 58 | 252 | 2.0 | 4.0 | 0.00 | 0.00 | 0.00 | 63 | 1020.1 |
| 20260504191054 | 58 | 219 | 2.0 | 3.0 | 0.00 | 0.00 | 0.00 | 63 | 1020.2 |
| 20260504190554 | 58 | 231 | 0.0 | 3.0 | 0.00 | 0.00 | 0.00 | 62 | 1020.2 |
| 20260504190106 | 59 | 232 | 1.0 | 9.0 | 0.00 | 0.00 | 0.00 | 62 | 1020.1 |
| 20260504185553 | 59 | 250 | 3.0 | 10.0 | 0.00 | 0.00 | 0.00 | 62 | 1020.0 |
| 20260504185053 | 59 | 255 | 5.0 | 8.0 | 0.00 | 0.00 | 0.00 | 62 | 1019.9 |
| 20260504184554 | 59 | 234 | 4.0 | 8.0 | 0.00 | 0.00 | 0.00 | 62 | 1019.9 |
| 20260504184057 | 59 | 210 | 4.0 | 7.0 | 0.00 | 0.00 | 0.00 | 61 | 1019.9 |
| 20260504183554 | 59 | 207 | 1.0 | 4.0 | 0.00 | 0.00 | 0.00 | 61 | 1020.0 |
| 20260504183100 | 59 | 239 | 2.0 | 5.0 | 0.00 | 0.00 | 0.00 | 61 | 1020.0 |
| 20260504182553 | 59 | 240 | 3.0 | 6.0 | 0.00 | 0.00 | 0.00 | 61 | 1019.9 |
| 20260504182053 | 59 | 216 | 3.0 | 6.0 | 0.00 | 0.00 | 0.00 | 61 | 1019.9 |
| 20260504181553 | 59 | 228 | 3.0 | 6.0 | 0.00 | 0.00 | 0.00 | 61 | 1019.9 |
| 20260504181155 | 59 | 250 | 3.0 | 7.0 | 0.00 | 0.00 | 0.00 | 61 | 1019.9 |
| 20260504180552 | 59 | 201 | 3.0 | 6.0 | 0.00 | 0.00 | 0.00 | 61 | 1019.7 |
| 20260504180130 | 59 | 265 | 4.0 | 6.0 | 0.00 | 0.00 | 0.00 | 60 | 1019.6 |
| 20260504175551 | 60 | 190 | 1.0 | 5.0 | 0.00 | 0.00 | 0.00 | 60 | 1019.6 |
| 20260504175051 | 60 | 246 | 4.0 | 5.0 | 0.00 | 0.00 | 0.00 | 60 | 1019.5 |
| 20260504174551 | 60 | 248 | 3.0 | 7.0 | 0.00 | 0.00 | 0.00 | 60 | 1019.6 |
| 20260504174050 | 60 | 242 | 4.0 | 7.0 | 0.00 | 0.00 | 0.00 | 59 | 1019.6 |
| 20260504173551 | 60 | 266 | 3.0 | 7.0 | 0.00 | 0.00 | 0.00 | 59 | 1019.6 |
| 20260504173050 | 60 | 264 | 3.0 | 8.0 | 0.00 | 0.00 | 0.00 | 58 | 1019.5 |
| 20260504172550 | 61 | 278 | 4.0 | 8.0 | 0.00 | 0.00 | 0.00 | 58 | 1019.5 |
| 20260504172051 | 61 | 269 | 2.0 | 7.0 | 0.00 | 0.00 | 0.00 | 57 | 1019.3 |
| 20260504171551 | 61 | 271 | 3.0 | 9.0 | 0.00 | 0.00 | 0.00 | 55 | 1019.4 |
| 20260504171049 | 62 | 261 | 5.0 | 9.0 | 0.00 | 0.00 | 0.00 | 53 | 1019.4 |
| 20260504170548 | 64 | 261 | 4.0 | 10.0 | 0.00 | 0.00 | 0.00 | 39 | 1019.4 |
| 20260504151042 | 66 | 350 | 12.0 | 17.0 | 0.00 | 0.00 | 0.00 | 31 | 1019.5 |
| 20260504150545 | 66 | 348 | 8.0 | 14.0 | 0.00 | 0.00 | 0.00 | 30 | 1019.4 |
| 20260504141039 | 66 | 13 | 12.0 | 24.0 | 0.00 | 0.00 | 0.00 | 27 | 1019.4 |
| 20260504140538 | 67 | 11 | 12.0 | 20.0 | 0.00 | 0.00 | 0.00 | 27 | 1019.5 |
| 20260504130527 | 67 | 329 | 9.0 | 15.0 | 0.00 | 0.00 | 0.00 | 33 | 1019.6 |
| 20260504110507 | 64 | 42 | 8.0 | 15.0 | 0.00 | 0.00 | 0.00 | 37 | 1021.0 |
| 20260504100557 | 63 | 12 | 12.0 | 18.0 | 0.00 | 0.00 | 0.00 | 39 | 1021.4 |
| 20260504100116 | 63 | 346 | 9.0 | 16.0 | 0.00 | 0.00 | 0.00 | 40 | 1021.4 |
| 20260504081526 | 60 | 12 | 6.0 | 14.0 | 0.00 | 0.00 | 0.00 | 44 | 1021.4 |
| 20260504081027 | 60 | 344 | 7.0 | 13.0 | 0.00 | 0.00 | 0.00 | 45 | 1021.4 |
| 20260504080525 | 60 | 335 | 7.0 | 13.0 | 0.00 | 0.00 | 0.00 | 44 | 1021.3 |
| 20260504060106 | 55 | 227 | 1.0 | 3.0 | 0.00 | 0.00 | 0.00 | 60 | 1021.0 |
| 20260504050543 | 51 | 294 | 0.0 | 2.0 | 0.00 | 0.02 | 0.00 | 71 | 1020.9 |
| 20260504045539 | 50 | 330 | 1.0 | 3.0 | 0.00 | 0.04 | 0.00 | 71 | 1020.9 |
| 20260504045038 | 49 | 251 | 0.0 | 3.0 | 0.00 | 0.04 | 0.00 | 72 | 1020.9 |
| 20260504044538 | 49 | 350 | 0.0 | 4.0 | 0.00 | 0.04 | 0.00 | 72 | 1020.8 |
| 20260504044038 | 49 | 355 | 1.0 | 4.0 | 0.00 | 0.04 | 0.00 | 72 | 1020.7 |
| 20260504043534 | 49 | 355 | 0.0 | 4.0 | 0.00 | 0.04 | 0.00 | 72 | 1020.6 |
| 20260504043041 | 49 | 76 | 1.0 | 4.0 | 0.00 | 0.04 | 0.00 | 73 | 1020.7 |
| 20260504042531 | 48 | 59 | 3.0 | 4.0 | 0.00 | 0.04 | 0.00 | 73 | 1020.7 |
| 20260504042032 | 47 | 41 | 3.0 | 4.0 | 0.00 | 0.04 | 0.00 | 74 | 1020.7 |
| 20260504041530 | 47 | 38 | 2.0 | 5.0 | 0.00 | 0.04 | 0.00 | 75 | 1020.7 |
| 20260504041028 | 47 | 15 | 4.0 | 5.0 | 0.00 | 0.04 | 0.00 | 73 | 1020.7 |
| 20260504040527 | 48 | 300 | 0.0 | 4.0 | 0.00 | 0.04 | 0.00 | 73 | 1020.6 |
| 20260504040026 | 48 | 311 | 2.0 | 4.0 | 0.00 | 0.04 | 0.00 | 73 | 1020.6 |
| 20260504035525 | 47 | 14 | 0.0 | 4.0 | 0.00 | 0.04 | 0.00 | 74 | 1020.6 |
| 20260504035027 | 47 | 360 | 1.0 | 4.0 | 0.00 | 0.04 | 0.00 | 75 | 1020.5 |
| 20260504034522 | 47 | 32 | 2.0 | 4.0 | 0.00 | 0.04 | 0.00 | 75 | 1020.5 |
| 20260504034022 | 47 | 338 | 1.0 | 4.0 | 0.00 | 0.04 | 0.00 | 74 | 1020.5 |
| 20260504033521 | 47 | 313 | 0.0 | 3.0 | 0.00 | 0.04 | 0.00 | 74 | 1020.5 |
| 20260504033021 | 47 | 9 | 0.0 | 3.0 | 0.00 | 0.04 | 0.00 | 74 | 1020.5 |
| 20260504032520 | 47 | 95 | 0.0 | 4.0 | 0.00 | 0.04 | 0.00 | 75 | 1020.5 |
| 20260504032021 | 46 | 90 | 2.0 | 4.0 | 0.00 | 0.04 | 0.00 | 75 | 1020.4 |
| 20260504031521 | 46 | 42 | 1.0 | 3.0 | 0.00 | 0.04 | 0.00 | 75 | 1020.4 |
| 20260504031020 | 46 | 355 | 1.0 | 3.0 | 0.00 | 0.04 | 0.00 | 75 | 1020.4 |
| 20260504030519 | 46 | 345 | 2.0 | 3.0 | 0.00 | 0.04 | 0.00 | 75 | 1020.3 |
| 20260504030019 | 46 | 319 | 0.0 | 3.0 | 0.00 | 0.06 | 0.00 | 75 | 1020.3 |
| 20260504025518 | 46 | 329 | 0.0 | 3.0 | 0.00 | 0.06 | 0.00 | 73 | 1020.1 |
| 20260504025017 | 47 | 333 | 0.0 | 5.0 | 0.00 | 0.06 | 0.00 | 72 | 1020.2 |
| 20260504024517 | 48 | 98 | 2.0 | 4.0 | 0.00 | 0.06 | 0.00 | 71 | 1020.2 |
| 20260504024016 | 47 | 84 | 1.0 | 3.0 | 0.00 | 0.06 | 0.00 | 72 | 1020.2 |
| 20260504023516 | 48 | 90 | 0.0 | 3.0 | 0.00 | 0.06 | 0.00 | 71 | 1020.1 |
| 20260504023016 | 48 | 78 | 2.0 | 4.0 | 0.00 | 0.06 | 0.00 | 71 | 1020.1 |
| 20260504022517 | 48 | 91 | 1.0 | 4.0 | 0.00 | 0.06 | 0.00 | 71 | 1020.1 |
| 20260504022016 | 48 | 113 | 2.0 | 4.0 | 0.00 | 0.06 | 0.00 | 72 | 1020.2 |
| 20260504021518 | 48 | 119 | 0.0 | 6.0 | 0.00 | 0.06 | 0.00 | 71 | 1020.2 |
| 20260504021014 | 48 | 118 | 3.0 | 7.0 | 0.00 | 0.06 | 0.00 | 72 | 1020.3 |
| 20260504020514 | 47 | 130 | 2.0 | 7.0 | 0.00 | 0.06 | 0.00 | 71 | 1020.3 |
| 20260504020014 | 48 | 52 | 3.0 | 8.0 | 0.00 | 0.06 | 0.00 | 70 | 1020.5 |
| 20260504015514 | 48 | 134 | 3.0 | 8.0 | 0.00 | 0.06 | 0.00 | 70 | 1020.4 |
| 20260504015014 | 47 | 30 | 3.0 | 8.0 | 0.00 | 0.06 | 0.00 | 71 | 1020.4 |
| 20260504014513 | 47 | 134 | 3.0 | 5.0 | 0.00 | 0.06 | 0.00 | 71 | 1020.3 |
| 20260504014012 | 47 | 54 | 3.0 | 5.0 | 0.00 | 0.06 | 0.00 | 70 | 1020.3 |
| 20260504013513 | 48 | 105 | 2.0 | 9.0 | 0.00 | 0.06 | 0.00 | 70 | 1020.4 |
| 20260504013016 | 48 | 92 | 4.0 | 9.0 | 0.00 | 0.06 | 0.00 | 69 | 1020.3 |
| 20260504012510 | 48 | 28 | 0.0 | 8.0 | 0.00 | 0.06 | 0.00 | 69 | 1020.4 |
| 20260504012009 | 48 | 347 | 2.0 | 5.0 | 0.00 | 0.06 | 0.00 | 68 | 1020.3 |
| 20260504011509 | 48 | 107 | 2.0 | 4.0 | 0.00 | 0.06 | 0.00 | 68 | 1020.3 |
| 20260504011010 | 49 | 98 | 0.0 | 3.0 | 0.00 | 0.06 | 0.00 | 67 | 1020.4 |
| 20260504010508 | 48 | 119 | 1.0 | 3.0 | 0.00 | 0.06 | 0.00 | 67 | 1020.3 |
| 20260504010009 | 48 | 97 | 2.0 | 4.0 | 0.00 | 0.06 | 0.00 | 68 | 1020.3 |
| 20260504005509 | 49 | 15 | 0.0 | 4.0 | 0.00 | 0.06 | 0.00 | 67 | 1020.3 |
| 20260504005008 | 48 | 119 | 0.0 | 3.0 | 0.00 | 0.06 | 0.00 | 68 | 1020.1 |
| 20260504004516 | 49 | 124 | 1.0 | 3.0 | 0.00 | 0.06 | 0.00 | 67 | 1020.2 |
| 20260504004007 | 49 | 119 | 0.0 | 3.0 | 0.00 | 0.06 | 0.00 | 66 | 1020.2 |
| 20260504003506 | 49 | 101 | 2.0 | 3.0 | 0.00 | 0.06 | 0.00 | 67 | 1020.2 |
| 20260504003006 | 49 | 296 | 1.0 | 4.0 | 0.00 | 0.06 | 0.00 | 66 | 1020.1 |
| 20260504002506 | 49 | 304 | 1.0 | 5.0 | 0.00 | 0.06 | 0.00 | 66 | 1020.1 |
| 20260504002006 | 49 | 71 | 1.0 | 8.0 | 0.00 | 0.06 | 0.00 | 66 | 1020.1 |